| time (UTC) | temp F | wind direction | speed MPH | gust MPH | rain 1hr in | rain 24hr in | rain mn in | humidity % | barometer mb |
| 20260831225527 | 64 | 207 | 0.0 | 0.0 | 0.00 | 0.38 | 0.00 | 74 | 1023.7 |
| 20260831225030 | 64 | 207 | 0.0 | 0.0 | 0.00 | 0.38 | 0.00 | 74 | 1023.6 |
| 20260831224526 | 64 | 207 | 0.0 | 0.0 | 0.00 | 0.38 | 0.00 | 74 | 1023.6 |
| 20260831224026 | 64 | 207 | 0.0 | 0.0 | 0.00 | 0.38 | 0.00 | 74 | 1023.6 |
| 20260831223525 | 64 | 207 | 0.0 | 0.0 | 0.00 | 0.38 | 0.00 | 73 | 1023.7 |
| 20260831223025 | 64 | 207 | 0.0 | 0.0 | 0.00 | 0.38 | 0.00 | 73 | 1023.7 |
| 20260831222525 | 64 | 207 | 0.0 | 1.0 | 0.00 | 0.38 | 0.00 | 73 | 1023.7 |
| 20260831222023 | 64 | 207 | 0.0 | 1.0 | 0.00 | 0.38 | 0.00 | 73 | 1023.7 |
| 20260831221524 | 64 | 207 | 0.0 | 0.0 | 0.00 | 0.38 | 0.00 | 72 | 1023.7 |
| 20260831221022 | 64 | 207 | 0.0 | 0.0 | 0.00 | 0.38 | 0.00 | 72 | 1023.8 |
| 20260831220521 | 64 | 207 | 0.0 | 0.0 | 0.00 | 0.38 | 0.00 | 72 | 1023.7 |
| 20260831220023 | 65 | 207 | 0.0 | 0.0 | 0.00 | 0.38 | 0.00 | 71 | 1023.8 |
| 20260831215522 | 65 | 207 | 0.0 | 0.0 | 0.00 | 0.38 | 0.38 | 71 | 1023.8 |
| 20260831215020 | 65 | 207 | 0.0 | 0.0 | 0.00 | 0.38 | 0.38 | 70 | 1023.7 |
| 20260831214520 | 65 | 207 | 0.0 | 0.0 | 0.00 | 0.38 | 0.38 | 70 | 1023.7 |
| 20260831214019 | 65 | 207 | 0.0 | 0.0 | 0.00 | 0.38 | 0.38 | 69 | 1023.7 |
| 20260831213519 | 65 | 207 | 0.0 | 0.0 | 0.00 | 0.38 | 0.38 | 69 | 1023.7 |
| 20260831213030 | 66 | 207 | 0.0 | 0.0 | 0.00 | 0.38 | 0.38 | 68 | 1023.7 |
| 20260831212526 | 66 | 207 | 0.0 | 0.0 | 0.00 | 0.38 | 0.38 | 68 | 1023.6 |
| 20260831212020 | 66 | 207 | 0.0 | 0.0 | 0.00 | 0.38 | 0.38 | 67 | 1023.7 |
| 20260831211517 | 67 | 207 | 0.0 | 0.0 | 0.00 | 0.38 | 0.38 | 66 | 1023.7 |
| 20260831211017 | 67 | 207 | 0.0 | 0.0 | 0.00 | 0.38 | 0.38 | 65 | 1023.7 |
| 20260831210517 | 67 | 207 | 0.0 | 1.0 | 0.00 | 0.38 | 0.38 | 65 | 1023.6 |
| 20260831210020 | 67 | 207 | 0.0 | 1.0 | 0.00 | 0.38 | 0.38 | 65 | 1023.6 |
| 20260831205517 | 68 | 207 | 0.0 | 1.0 | 0.00 | 0.38 | 0.38 | 64 | 1023.6 |
| 20260831205017 | 68 | 207 | 0.0 | 2.0 | 0.00 | 0.38 | 0.38 | 63 | 1023.5 |
| 20260831204517 | 68 | 207 | 0.0 | 2.0 | 0.00 | 0.38 | 0.38 | 62 | 1023.5 |
| 20260831204021 | 69 | 205 | 0.0 | 1.0 | 0.00 | 0.38 | 0.38 | 61 | 1023.6 |
| 20260831203516 | 69 | 205 | 0.0 | 2.0 | 0.00 | 0.38 | 0.38 | 61 | 1023.5 |
| 20260831203018 | 69 | 205 | 0.0 | 2.0 | 0.00 | 0.38 | 0.38 | 61 | 1023.5 |
| 20260831202516 | 69 | 211 | 0.0 | 1.0 | 0.00 | 0.38 | 0.38 | 60 | 1023.5 |
| 20260831202015 | 69 | 211 | 0.0 | 2.0 | 0.00 | 0.38 | 0.38 | 60 | 1023.4 |
| 20260831201516 | 69 | 211 | 0.0 | 2.0 | 0.00 | 0.38 | 0.38 | 59 | 1023.2 |
| 20260831201020 | 69 | 211 | 0.0 | 1.0 | 0.00 | 0.38 | 0.38 | 59 | 1023.1 |
| 20260831200512 | 70 | 211 | 0.0 | 2.0 | 0.00 | 0.38 | 0.38 | 59 | 1023.0 |
| 20260831200021 | 70 | 211 | 0.0 | 3.0 | 0.00 | 0.38 | 0.38 | 59 | 1022.9 |
| 20260831195514 | 70 | 317 | 0.0 | 3.0 | 0.00 | 0.38 | 0.38 | 58 | 1022.8 |
| 20260831195011 | 70 | 277 | 1.0 | 3.0 | 0.00 | 0.38 | 0.38 | 58 | 1022.8 |
| 20260831194524 | 70 | 194 | 0.0 | 1.0 | 0.00 | 0.38 | 0.38 | 58 | 1022.7 |
| 20260831194012 | 70 | 194 | 0.0 | 1.0 | 0.00 | 0.38 | 0.38 | 57 | 1022.8 |
| 20260831193520 | 70 | 194 | 0.0 | 1.0 | 0.00 | 0.38 | 0.38 | 57 | 1022.7 |
| 20260831193011 | 71 | 194 | 0.0 | 0.0 | 0.00 | 0.38 | 0.38 | 57 | 1022.7 |
| 20260831192513 | 71 | 194 | 0.0 | 0.0 | 0.00 | 0.38 | 0.38 | 56 | 1022.7 |
| 20260831192011 | 71 | 194 | 0.0 | 0.0 | 0.00 | 0.38 | 0.38 | 55 | 1022.6 |
| 20260831191511 | 71 | 194 | 0.0 | 0.0 | 0.00 | 0.38 | 0.38 | 54 | 1022.6 |
| 20260831191009 | 71 | 194 | 0.0 | 0.0 | 0.00 | 0.38 | 0.38 | 54 | 1022.5 |
| 20260831190509 | 71 | 194 | 0.0 | 1.0 | 0.00 | 0.38 | 0.38 | 54 | 1022.5 |
| 20260831190010 | 71 | 194 | 0.0 | 1.0 | 0.00 | 0.38 | 0.38 | 54 | 1022.5 |
| 20260831185608 | 72 | 194 | 0.0 | 2.0 | 0.00 | 0.38 | 0.38 | 53 | 1022.5 |
| 20260831185008 | 72 | 123 | 0.0 | 2.0 | 0.00 | 0.38 | 0.38 | 53 | 1022.2 |
| 20260831184515 | 72 | 116 | 0.0 | 2.0 | 0.00 | 0.38 | 0.38 | 53 | 1022.1 |
| 20260831184005 | 72 | 55 | 0.0 | 0.0 | 0.00 | 0.38 | 0.38 | 53 | 1022.0 |
| 20260831183506 | 72 | 55 | 0.0 | 2.0 | 0.00 | 0.38 | 0.38 | 52 | 1021.9 |
| 20260831183007 | 72 | 55 | 0.0 | 3.0 | 0.00 | 0.38 | 0.38 | 52 | 1021.9 |
| 20260831182504 | 73 | 57 | 1.0 | 3.0 | 0.00 | 0.38 | 0.38 | 52 | 1021.8 |
| 20260831182003 | 73 | 44 | 0.0 | 4.0 | 0.00 | 0.38 | 0.38 | 51 | 1021.7 |
| 20260831181505 | 73 | 78 | 0.0 | 4.0 | 0.00 | 0.38 | 0.38 | 51 | 1021.7 |
| 20260831181001 | 73 | 119 | 0.0 | 3.0 | 0.00 | 0.38 | 0.38 | 51 | 1021.5 |
| 20260831180503 | 73 | 117 | 0.0 | 4.0 | 0.00 | 0.38 | 0.38 | 50 | 1021.4 |
| 20260831180001 | 73 | 95 | 1.0 | 4.0 | 0.00 | 0.38 | 0.38 | 50 | 1021.3 |
| 20260831175502 | 73 | 19 | 0.0 | 4.0 | 0.00 | 0.38 | 0.38 | 50 | 1021.5 |
| 20260831175003 | 74 | 169 | 0.0 | 3.0 | 0.00 | 0.38 | 0.38 | 50 | 1021.4 |
| 20260831174504 | 74 | 178 | 1.0 | 3.0 | 0.00 | 0.38 | 0.38 | 49 | 1021.3 |
| 20260831174002 | 74 | 123 | 0.0 | 4.0 | 0.00 | 0.38 | 0.38 | 49 | 1021.3 |
| 20260831173502 | 74 | 35 | 1.0 | 3.0 | 0.00 | 0.38 | 0.38 | 49 | 1021.3 |
| 20260831173001 | 74 | 72 | 0.0 | 2.0 | 0.00 | 0.38 | 0.38 | 49 | 1021.3 |
| 20260831172501 | 74 | 72 | 0.0 | 3.0 | 0.00 | 0.38 | 0.38 | 48 | 1021.3 |
| 20260831172002 | 75 | 355 | 0.0 | 7.0 | 0.00 | 0.38 | 0.38 | 48 | 1021.3 |
| 20260831171601 | 75 | 351 | 1.0 | 7.0 | 0.00 | 0.38 | 0.38 | 47 | 1021.3 |
| 20260831171100 | 75 | 126 | 0.0 | 4.0 | 0.00 | 0.38 | 0.38 | 47 | 1021.3 |
| 20260831170600 | 75 | 119 | 1.0 | 4.0 | 0.00 | 0.38 | 0.38 | 47 | 1021.3 |
| 20260831165600 | 75 | 24 | 1.0 | 10.0 | 0.00 | 0.38 | 0.38 | 47 | 1021.3 |
| 20260831165059 | 75 | 158 | 2.0 | 10.0 | 0.00 | 0.38 | 0.38 | 46 | 1021.3 |
| 20260831164600 | 75 | 50 | 1.0 | 8.0 | 0.00 | 0.38 | 0.38 | 46 | 1021.3 |
| 20260831164103 | 76 | 38 | 3.0 | 10.0 | 0.00 | 0.38 | 0.38 | 46 | 1021.3 |
| 20260831163600 | 76 | 84 | 3.0 | 9.0 | 0.00 | 0.38 | 0.38 | 46 | 1021.4 |
| 20260831163100 | 76 | 22 | 3.0 | 13.0 | 0.00 | 0.38 | 0.38 | 45 | 1021.4 |
| 20260831162600 | 76 | 288 | 4.0 | 13.0 | 0.00 | 0.38 | 0.38 | 45 | 1021.4 |
| 20260831162059 | 76 | 72 | 1.0 | 8.0 | 0.00 | 0.38 | 0.38 | 46 | 1021.3 |
| 20260831161559 | 76 | 120 | 3.0 | 8.0 | 0.00 | 0.38 | 0.38 | 45 | 1021.3 |
| 20260831161058 | 76 | 59 | 2.0 | 14.0 | 0.00 | 0.38 | 0.38 | 45 | 1021.3 |
| 20260831160558 | 76 | 102 | 2.0 | 8.0 | 0.00 | 0.38 | 0.38 | 45 | 1021.3 |
| 20260831160058 | 76 | 90 | 3.0 | 11.0 | 0.00 | 0.38 | 0.38 | 45 | 1021.2 |
| 20260831155558 | 76 | 71 | 2.0 | 11.0 | 0.00 | 0.38 | 0.38 | 45 | 1021.3 |
| 20260831155100 | 76 | 5 | 3.0 | 15.0 | 0.00 | 0.38 | 0.38 | 44 | 1021.4 |
| 20260831154601 | 76 | 189 | 6.0 | 15.0 | 0.00 | 0.38 | 0.38 | 44 | 1021.2 |
| 20260831154058 | 76 | 199 | 3.0 | 8.0 | 0.00 | 0.38 | 0.38 | 46 | 1021.2 |
| 20260831153558 | 76 | 78 | 3.0 | 12.0 | 0.00 | 0.38 | 0.38 | 46 | 1021.2 |
| 20260831153058 | 76 | 300 | 3.0 | 12.0 | 0.00 | 0.38 | 0.38 | 46 | 1021.2 |
| 20260831152557 | 77 | 79 | 3.0 | 13.0 | 0.00 | 0.38 | 0.38 | 48 | 1021.1 |
| 20260831152057 | 77 | 258 | 3.0 | 13.0 | 0.00 | 0.38 | 0.38 | 48 | 1021.1 |
| 20260831151603 | 77 | 262 | 2.0 | 10.0 | 0.00 | 0.38 | 0.38 | 48 | 1021.0 |
| 20260831151057 | 77 | 144 | 3.0 | 11.0 | 0.00 | 0.38 | 0.38 | 47 | 1021.1 |
| 20260831150557 | 77 | 329 | 4.0 | 11.0 | 0.00 | 0.38 | 0.38 | 48 | 1020.9 |
| 20260831150057 | 77 | 135 | 4.0 | 11.0 | 0.00 | 0.38 | 0.38 | 49 | 1020.8 |
| 20260831145556 | 78 | 35 | 4.0 | 13.0 | 0.00 | 0.38 | 0.38 | 48 | 1020.8 |
| 20260831145057 | 78 | 180 | 2.0 | 13.0 | 0.00 | 0.38 | 0.38 | 48 | 1020.7 |
| 20260831144614 | 78 | 244 | 4.0 | 14.0 | 0.00 | 0.38 | 0.38 | 48 | 1020.6 |
| 20260831144057 | 78 | 178 | 3.0 | 14.0 | 0.00 | 0.38 | 0.38 | 48 | 1020.5 |
| 20260831143556 | 79 | 240 | 2.0 | 15.0 | 0.00 | 0.38 | 0.38 | 48 | 1020.5 |
| 20260831143056 | 79 | 74 | 4.0 | 15.0 | 0.00 | 0.38 | 0.38 | 47 | 1020.3 |
| 20260831142556 | 79 | 350 | 2.0 | 8.0 | 0.00 | 0.38 | 0.38 | 48 | 1020.3 |
| 20260831142055 | 79 | 128 | 2.0 | 7.0 | 0.00 | 0.38 | 0.38 | 48 | 1020.3 |
| 20260831141555 | 80 | 159 | 1.0 | 9.0 | 0.00 | 0.38 | 0.38 | 47 | 1020.2 |
| 20260831141059 | 80 | 12 | 2.0 | 9.0 | 0.00 | 0.38 | 0.38 | 48 | 1020.4 |
| 20260831140559 | 80 | 284 | 1.0 | 8.0 | 0.00 | 0.38 | 0.38 | 47 | 1020.2 |
| 20260831140055 | 80 | 338 | 2.0 | 7.0 | 0.00 | 0.38 | 0.38 | 47 | 1020.3 |
| 20260831135555 | 79 | 169 | 1.0 | 7.0 | 0.00 | 0.38 | 0.38 | 48 | 1020.3 |
| 20260831135055 | 79 | 331 | 1.0 | 9.0 | 0.00 | 0.38 | 0.38 | 48 | 1020.3 |
| 20260831134559 | 78 | 143 | 2.0 | 12.0 | 0.00 | 0.38 | 0.38 | 47 | 1020.4 |
| 20260831134055 | 80 | 340 | 2.0 | 12.0 | 0.00 | 0.38 | 0.38 | 45 | 1020.2 |
| 20260831133554 | 80 | 26 | 1.0 | 8.0 | 0.00 | 0.38 | 0.38 | 44 | 1020.3 |
| 20260831133055 | 80 | 51 | 0.0 | 8.0 | 0.00 | 0.38 | 0.38 | 44 | 1020.2 |
| 20260831132554 | 80 | 119 | 2.0 | 6.0 | 0.00 | 0.38 | 0.38 | 44 | 1020.3 |
| 20260831132054 | 80 | 63 | 1.0 | 5.0 | 0.00 | 0.38 | 0.38 | 44 | 1020.4 |
| 20260831131554 | 80 | 192 | 2.0 | 6.0 | 0.00 | 0.38 | 0.38 | 44 | 1020.4 |
| 20260831131052 | 80 | 284 | 1.0 | 9.0 | 0.00 | 0.38 | 0.38 | 44 | 1020.5 |
| 20260831130551 | 79 | 131 | 2.0 | 8.0 | 0.00 | 0.38 | 0.38 | 44 | 1020.4 |
| 20260831130051 | 79 | 54 | 2.0 | 10.0 | 0.00 | 0.38 | 0.38 | 44 | 1020.5 |
| 20260831125553 | 78 | 19 | 3.0 | 12.0 | 0.00 | 0.38 | 0.38 | 44 | 1020.6 |
| 20260831125050 | 79 | 350 | 4.0 | 12.0 | 0.00 | 0.38 | 0.38 | 43 | 1020.6 |
| 20260831124550 | 79 | 309 | 2.0 | 9.0 | 0.00 | 0.38 | 0.38 | 44 | 1020.7 |
| 20260831124050 | 79 | 339 | 3.0 | 12.0 | 0.00 | 0.38 | 0.38 | 44 | 1020.7 |
| 20260831123549 | 78 | 324 | 4.0 | 12.0 | 0.00 | 0.38 | 0.38 | 45 | 1020.6 |
| 20260831123048 | 78 | 177 | 2.0 | 9.0 | 0.00 | 0.38 | 0.38 | 46 | 1020.6 |
| 20260831122547 | 78 | 79 | 3.0 | 9.0 | 0.00 | 0.38 | 0.38 | 45 | 1020.6 |
| 20260831122048 | 78 | 294 | 2.0 | 9.0 | 0.00 | 0.38 | 0.38 | 45 | 1020.7 |
| 20260831121547 | 78 | 319 | 2.0 | 11.0 | 0.00 | 0.38 | 0.38 | 46 | 1020.7 |
| 20260831121046 | 77 | 18 | 3.0 | 11.0 | 0.00 | 0.38 | 0.38 | 46 | 1020.8 |
| 20260831120548 | 78 | 76 | 2.0 | 8.0 | 0.00 | 0.38 | 0.38 | 46 | 1020.8 |
| 20260831120045 | 77 | 355 | 2.0 | 8.0 | 0.00 | 0.38 | 0.38 | 45 | 1020.8 |
| 20260831115544 | 77 | 65 | 2.0 | 9.0 | 0.00 | 0.38 | 0.38 | 46 | 1020.8 |
| 20260831115044 | 77 | 360 | 3.0 | 9.0 | 0.00 | 0.38 | 0.38 | 46 | 1020.9 |
| 20260831114545 | 77 | 5 | 2.0 | 8.0 | 0.00 | 0.38 | 0.38 | 46 | 1020.9 |
| 20260831114047 | 77 | 348 | 2.0 | 16.0 | 0.00 | 0.38 | 0.38 | 46 | 1021.0 |
| 20260831113543 | 77 | 277 | 4.0 | 16.0 | 0.00 | 0.38 | 0.38 | 46 | 1020.9 |
| 20260831113047 | 76 | 335 | 2.0 | 8.0 | 0.00 | 0.38 | 0.38 | 50 | 1020.9 |
| 20260831112541 | 76 | 219 | 2.0 | 9.0 | 0.00 | 0.38 | 0.38 | 50 | 1021.0 |
| 20260831112040 | 76 | 309 | 3.0 | 9.0 | 0.00 | 0.38 | 0.38 | 50 | 1021.0 |
| 20260831111603 | 76 | 355 | 2.0 | 7.0 | 0.00 | 0.38 | 0.38 | 50 | 1021.1 |
| 20260831111039 | 75 | 185 | 2.0 | 10.0 | 0.00 | 0.38 | 0.38 | 51 | 1021.2 |
| 20260831110537 | 75 | 55 | 3.0 | 10.0 | 0.00 | 0.38 | 0.38 | 52 | 1021.2 |
| 20260831110048 | 75 | 226 | 3.0 | 11.0 | 0.00 | 0.38 | 0.38 | 52 | 1021.1 |
| 20260831105536 | 74 | 336 | 3.0 | 11.0 | 0.00 | 0.38 | 0.38 | 53 | 1021.1 |
| 20260831105036 | 74 | 181 | 2.0 | 8.0 | 0.00 | 0.38 | 0.38 | 53 | 1021.2 |
| 20260831104536 | 74 | 154 | 2.0 | 7.0 | 0.00 | 0.38 | 0.38 | 54 | 1021.1 |
| 20260831104035 | 74 | 153 | 1.0 | 7.0 | 0.00 | 0.38 | 0.38 | 55 | 1021.1 |
| 20260831103534 | 74 | 306 | 0.0 | 6.0 | 0.00 | 0.38 | 0.38 | 55 | 1021.2 |
| 20260831103034 | 74 | 184 | 2.0 | 5.0 | 0.00 | 0.38 | 0.38 | 55 | 1021.1 |
| 20260831102534 | 74 | 325 | 1.0 | 5.0 | 0.00 | 0.38 | 0.38 | 55 | 1021.2 |
| 20260831102033 | 74 | 360 | 1.0 | 5.0 | 0.00 | 0.38 | 0.38 | 56 | 1021.2 |
| 20260831101533 | 73 | 92 | 1.0 | 6.0 | 0.00 | 0.38 | 0.38 | 57 | 1021.3 |
| 20260831101032 | 73 | 265 | 1.0 | 6.0 | 0.00 | 0.38 | 0.38 | 56 | 1021.3 |
| 20260831100532 | 73 | 53 | 0.0 | 8.0 | 0.00 | 0.38 | 0.38 | 58 | 1021.3 |
| 20260831100031 | 73 | 341 | 2.0 | 10.0 | 0.00 | 0.38 | 0.38 | 57 | 1021.3 |
| 20260831095531 | 73 | 309 | 4.0 | 10.0 | 0.00 | 0.38 | 0.38 | 56 | 1021.3 |
| 20260831095030 | 73 | 76 | 2.0 | 8.0 | 0.00 | 0.38 | 0.38 | 57 | 1021.4 |
| 20260831094530 | 73 | 148 | 2.0 | 8.0 | 0.00 | 0.38 | 0.38 | 58 | 1021.4 |
| 20260831094031 | 73 | 319 | 2.0 | 9.0 | 0.00 | 0.38 | 0.38 | 59 | 1021.4 |
| 20260831093531 | 73 | 230 | 3.0 | 9.0 | 0.00 | 0.38 | 0.38 | 59 | 1021.5 |
| 20260831093028 | 73 | 253 | 2.0 | 6.0 | 0.00 | 0.38 | 0.38 | 59 | 1021.4 |
| 20260831092525 | 72 | 281 | 1.0 | 6.0 | 0.00 | 0.38 | 0.38 | 61 | 1021.5 |
| 20260831092024 | 72 | 318 | 3.0 | 7.0 | 0.00 | 0.38 | 0.38 | 61 | 1021.4 |
| 20260831091524 | 71 | 46 | 3.0 | 13.0 | 0.00 | 0.38 | 0.38 | 60 | 1021.6 |
| 20260831091021 | 71 | 257 | 2.0 | 13.0 | 0.00 | 0.38 | 0.38 | 63 | 1021.6 |
| 20260831090521 | 71 | 240 | 2.0 | 8.0 | 0.00 | 0.38 | 0.38 | 64 | 1021.5 |
| 20260831090020 | 70 | 63 | 1.0 | 6.0 | 0.00 | 0.38 | 0.38 | 65 | 1021.6 |
| 20260831085518 | 70 | 30 | 1.0 | 13.0 | 0.00 | 0.38 | 0.38 | 67 | 1021.5 |
| 20260831085022 | 69 | 96 | 3.0 | 13.0 | 0.00 | 0.38 | 0.38 | 67 | 1021.5 |
| 20260831084531 | 68 | 234 | 1.0 | 6.0 | 0.00 | 0.38 | 0.38 | 70 | 1021.4 |
| 20260831084015 | 68 | 22 | 2.0 | 6.0 | 0.00 | 0.38 | 0.38 | 71 | 1021.4 |
| 20260831083516 | 68 | 167 | 1.0 | 5.0 | 0.00 | 0.38 | 0.38 | 73 | 1021.4 |
| 20260831083014 | 68 | 254 | 0.0 | 4.0 | 0.00 | 0.38 | 0.38 | 72 | 1021.3 |
| 20260831082514 | 68 | 233 | 1.0 | 12.0 | 0.00 | 0.38 | 0.38 | 72 | 1021.3 |
| 20260831082013 | 68 | 168 | 4.0 | 12.0 | 0.00 | 0.38 | 0.38 | 72 | 1021.3 |
| 20260831081521 | 68 | 213 | 1.0 | 5.0 | 0.00 | 0.38 | 0.38 | 73 | 1021.3 |
| 20260831081014 | 68 | 211 | 1.0 | 8.0 | 0.00 | 0.38 | 0.38 | 73 | 1021.2 |
| 20260831080511 | 68 | 157 | 2.0 | 8.0 | 0.00 | 0.38 | 0.38 | 72 | 1021.1 |
| 20260831080011 | 68 | 150 | 2.0 | 5.0 | 0.00 | 0.38 | 0.38 | 74 | 1021.1 |
| 20260831075510 | 67 | 234 | 0.0 | 3.0 | 0.00 | 0.38 | 0.38 | 76 | 1021.2 |
| 20260831075013 | 67 | 49 | 1.0 | 4.0 | 0.00 | 0.38 | 0.38 | 76 | 1021.2 |
| 20260831074529 | 67 | 278 | 2.0 | 4.0 | 0.00 | 0.38 | 0.38 | 77 | 1021.1 |
| 20260831074009 | 66 | 95 | 1.0 | 7.0 | 0.00 | 0.38 | 0.38 | 77 | 1021.1 |
| 20260831073509 | 66 | 110 | 1.0 | 7.0 | 0.00 | 0.38 | 0.38 | 77 | 1021.1 |
| 20260831073015 | 66 | 124 | 2.0 | 6.0 | 0.00 | 0.38 | 0.38 | 77 | 1021.1 |
| 20260831072507 | 66 | 107 | 0.0 | 7.0 | 0.00 | 0.38 | 0.38 | 78 | 1021.1 |
| 20260831072005 | 66 | 240 | 1.0 | 7.0 | 0.00 | 0.38 | 0.38 | 79 | 1021.0 |
| 20260831071504 | 65 | 298 | 1.0 | 4.0 | 0.00 | 0.38 | 0.38 | 79 | 1021.0 |
| 20260831071004 | 65 | 91 | 0.0 | 6.0 | 0.00 | 0.38 | 0.38 | 79 | 1021.0 |
| 20260831070504 | 65 | 128 | 0.0 | 8.0 | 0.00 | 0.38 | 0.38 | 79 | 1020.9 |
| 20260831070004 | 65 | 94 | 0.0 | 6.0 | 0.00 | 0.38 | 0.38 | 80 | 1021.0 |
| 20260831065504 | 65 | 350 | 1.0 | 6.0 | 0.00 | 0.38 | 0.38 | 80 | 1020.9 |
| 20260831065004 | 65 | 338 | 2.0 | 6.0 | 0.00 | 0.38 | 0.38 | 80 | 1020.9 |
| 20260831064509 | 65 | 67 | 0.0 | 8.0 | 0.00 | 0.38 | 0.38 | 80 | 1021.0 |
| 20260831064003 | 64 | 124 | 1.0 | 6.0 | 0.00 | 0.38 | 0.38 | 81 | 1020.9 |
| 20260831063502 | 64 | 146 | 0.0 | 4.0 | 0.00 | 0.38 | 0.38 | 82 | 1020.8 |
| 20260831063004 | 64 | 60 | 0.0 | 4.0 | 0.00 | 0.38 | 0.38 | 82 | 1020.9 |
| 20260831062502 | 64 | 31 | 0.0 | 4.0 | 0.00 | 0.38 | 0.38 | 82 | 1020.8 |
| 20260831062002 | 64 | 31 | 0.0 | 7.0 | 0.00 | 0.38 | 0.38 | 83 | 1020.7 |
| 20260831061502 | 64 | 99 | 1.0 | 7.0 | 0.00 | 0.38 | 0.38 | 83 | 1020.7 |
| 20260831061100 | 64 | 227 | 1.0 | 9.0 | 0.00 | 0.38 | 0.38 | 83 | 1020.6 |
| 20260831060600 | 64 | 340 | 2.0 | 9.0 | 0.00 | 0.38 | 0.38 | 83 | 1020.7 |
| 20260831060113 | 63 | 155 | 0.0 | 4.0 | 0.00 | 0.38 | 0.38 | 84 | 1020.6 |
| 20260831055558 | 63 | 100 | 0.0 | 4.0 | 0.00 | 0.38 | 0.38 | 84 | 1020.5 |
| 20260831055101 | 63 | 348 | 0.0 | 6.0 | 0.00 | 0.38 | 0.38 | 84 | 1020.5 |
| 20260831054600 | 63 | 88 | 1.0 | 6.0 | 0.00 | 0.38 | 0.38 | 84 | 1020.6 |
| 20260831054057 | 63 | 324 | 2.0 | 5.0 | 0.00 | 0.38 | 0.38 | 84 | 1020.6 |
| 20260831053558 | 63 | 25 | 0.0 | 3.0 | 0.00 | 0.38 | 0.38 | 84 | 1020.6 |
| 20260831053056 | 63 | 178 | 0.0 | 3.0 | 0.00 | 0.38 | 0.38 | 84 | 1020.5 |
| 20260831052555 | 63 | 246 | 0.0 | 6.0 | 0.00 | 0.38 | 0.38 | 84 | 1020.6 |
| 20260831052054 | 63 | 90 | 1.0 | 6.0 | 0.00 | 0.38 | 0.38 | 84 | 1020.4 |
| 20260831051554 | 63 | 184 | 0.0 | 4.0 | 0.00 | 0.38 | 0.38 | 84 | 1020.3 |
| 20260831051053 | 64 | 153 | 0.0 | 4.0 | 0.00 | 0.38 | 0.38 | 85 | 1020.4 |
| 20260831050552 | 64 | 186 | 0.0 | 4.0 | 0.00 | 0.38 | 0.38 | 85 | 1020.4 |
| 20260831050117 | 64 | 150 | 0.0 | 5.0 | 0.00 | 0.38 | 0.38 | 85 | 1020.3 |
| 20260831045550 | 64 | 136 | 0.0 | 5.0 | 0.00 | 0.38 | 0.38 | 85 | 1020.1 |
| 20260831045049 | 64 | 213 | 0.0 | 5.0 | 0.00 | 0.38 | 0.38 | 86 | 1020.2 |
| 20260831044549 | 64 | 155 | 1.0 | 5.0 | 0.00 | 0.38 | 0.38 | 86 | 1020.1 |
| 20260831044048 | 64 | 186 | 0.0 | 2.0 | 0.00 | 0.38 | 0.38 | 86 | 1020.1 |
| 20260831043547 | 64 | 186 | 0.0 | 3.0 | 0.00 | 0.38 | 0.38 | 86 | 1020.2 |
| 20260831043049 | 64 | 186 | 0.0 | 5.0 | 0.00 | 0.38 | 0.38 | 86 | 1020.2 |
| 20260831042546 | 64 | 124 | 0.0 | 5.0 | 0.00 | 0.38 | 0.38 | 87 | 1020.1 |
| 20260831042046 | 64 | 87 | 1.0 | 4.0 | 0.00 | 0.38 | 0.38 | 87 | 1019.9 |
| 20260831041549 | 64 | 112 | 1.0 | 9.0 | 0.00 | 0.38 | 0.38 | 87 | 1020.1 |
| 20260831041045 | 64 | 126 | 1.0 | 4.0 | 0.00 | 0.38 | 0.38 | 88 | 1020.0 |
| 20260831040545 | 64 | 292 | 0.0 | 4.0 | 0.00 | 0.38 | 0.38 | 89 | 1020.0 |
| 20260831040051 | 64 | 184 | 0.0 | 3.0 | 0.00 | 0.38 | 0.38 | 89 | 1019.9 |
| 20260831035544 | 64 | 306 | 0.0 | 3.0 | 0.00 | 0.38 | 0.38 | 90 | 1019.8 |
| 20260831035044 | 64 | 298 | 0.0 | 2.0 | 0.00 | 0.38 | 0.38 | 90 | 1019.8 |
| 20260831034544 | 64 | 296 | 0.0 | 4.0 | 0.01 | 0.38 | 0.38 | 91 | 1019.8 |
| 20260831034043 | 64 | 232 | 0.0 | 2.0 | 0.01 | 0.38 | 0.38 | 91 | 1019.8 |
| 20260831033544 | 64 | 187 | 0.0 | 2.0 | 0.01 | 0.38 | 0.38 | 91 | 1019.7 |
| 20260831033042 | 64 | 193 | 0.0 | 2.0 | 0.01 | 0.38 | 0.38 | 92 | 1019.7 |
| 20260831032542 | 64 | 269 | 0.0 | 3.0 | 0.01 | 0.38 | 0.38 | 92 | 1019.6 |
| 20260831032042 | 64 | 316 | 0.0 | 4.0 | 0.01 | 0.38 | 0.38 | 92 | 1019.6 |
| 20260831031541 | 64 | 355 | 0.0 | 4.0 | 0.01 | 0.38 | 0.38 | 92 | 1019.5 |
| 20260831031041 | 64 | 177 | 0.0 | 0.0 | 0.01 | 0.38 | 0.38 | 92 | 1019.6 |
| 20260831030541 | 64 | 177 | 0.0 | 0.0 | 0.01 | 0.38 | 0.38 | 93 | 1019.6 |
| 20260831030050 | 64 | 177 | 0.0 | 0.0 | 0.01 | 0.38 | 0.38 | 93 | 1019.5 |
| 20260831025540 | 64 | 177 | 0.0 | 0.0 | 0.01 | 0.38 | 0.38 | 93 | 1019.5 |
| 20260831025040 | 64 | 177 | 0.0 | 2.0 | 0.01 | 0.38 | 0.38 | 93 | 1019.5 |
| 20260831024540 | 64 | 177 | 0.0 | 2.0 | 0.00 | 0.37 | 0.37 | 93 | 1019.4 |
| 20260831024039 | 64 | 177 | 0.0 | 0.0 | 0.00 | 0.37 | 0.37 | 93 | 1019.4 |
| 20260831023538 | 64 | 177 | 0.0 | 0.0 | 0.00 | 0.37 | 0.37 | 93 | 1019.4 |
| 20260831023039 | 64 | 177 | 0.0 | 0.0 | 0.00 | 0.37 | 0.37 | 93 | 1019.4 |
| 20260831022540 | 64 | 177 | 0.0 | 0.0 | 0.00 | 0.37 | 0.37 | 93 | 1019.3 |
| 20260831022038 | 64 | 177 | 0.0 | 2.0 | 0.00 | 0.37 | 0.37 | 93 | 1019.3 |
| 20260831021537 | 64 | 177 | 0.0 | 2.0 | 0.00 | 0.37 | 0.37 | 93 | 1019.3 |
| 20260831021037 | 64 | 177 | 0.0 | 2.0 | 0.00 | 0.37 | 0.37 | 93 | 1019.1 |
| 20260831020537 | 64 | 177 | 0.0 | 1.0 | 0.00 | 0.37 | 0.37 | 93 | 1019.1 |
| 20260831020037 | 64 | 177 | 0.0 | 2.0 | 0.00 | 0.37 | 0.37 | 93 | 1019.0 |
| 20260831015536 | 64 | 177 | 0.0 | 2.0 | 0.00 | 0.37 | 0.37 | 93 | 1019.0 |
| 20260831015036 | 64 | 177 | 0.0 | 2.0 | 0.00 | 0.37 | 0.37 | 93 | 1019.0 |
| 20260831014545 | 64 | 177 | 0.0 | 0.0 | 0.00 | 0.37 | 0.37 | 93 | 1018.9 |
| 20260831014036 | 64 | 177 | 0.0 | 0.0 | 0.00 | 0.37 | 0.37 | 93 | 1018.9 |
| 20260831013536 | 64 | 177 | 0.0 | 0.0 | 0.00 | 0.37 | 0.37 | 93 | 1018.9 |
| 20260831013038 | 64 | 177 | 0.0 | 0.0 | 0.00 | 0.37 | 0.37 | 92 | 1018.9 |
| 20260831012535 | 64 | 177 | 0.0 | 0.0 | 0.00 | 0.37 | 0.37 | 92 | 1019.0 |
| 20260831012035 | 64 | 177 | 0.0 | 0.0 | 0.00 | 0.37 | 0.37 | 92 | 1019.1 |
| 20260831011539 | 64 | 177 | 0.0 | 0.0 | 0.00 | 0.37 | 0.37 | 92 | 1019.1 |
| 20260831011034 | 65 | 177 | 0.0 | 0.0 | 0.00 | 0.37 | 0.37 | 92 | 1019.1 |
| 20260831010534 | 65 | 177 | 0.0 | 0.0 | 0.00 | 0.37 | 0.37 | 92 | 1019.1 |
| 20260831010034 | 65 | 177 | 0.0 | 0.0 | 0.00 | 0.37 | 0.37 | 92 | 1019.2 |
| 20260831005533 | 65 | 177 | 0.0 | 0.0 | 0.00 | 0.37 | 0.37 | 92 | 1019.2 |
| 20260831005034 | 65 | 177 | 0.0 | 0.0 | 0.00 | 0.37 | 0.37 | 92 | 1019.1 |
| 20260831004533 | 65 | 177 | 0.0 | 0.0 | 0.00 | 0.37 | 0.37 | 92 | 1019.1 |
| 20260831004033 | 65 | 177 | 0.0 | 0.0 | 0.00 | 0.37 | 0.37 | 92 | 1019.0 |
| 20260831003532 | 65 | 177 | 0.0 | 0.0 | 0.00 | 0.37 | 0.37 | 92 | 1019.1 |
| 20260831003032 | 65 | 177 | 0.0 | 0.0 | 0.00 | 0.37 | 0.37 | 92 | 1019.1 |
| 20260831002532 | 65 | 177 | 0.0 | 0.0 | 0.01 | 0.37 | 0.37 | 92 | 1019.1 |
| 20260831002031 | 65 | 177 | 0.0 | 0.0 | 0.02 | 0.37 | 0.37 | 91 | 1019.0 |
| 20260831001534 | 65 | 177 | 0.0 | 0.0 | 0.04 | 0.37 | 0.37 | 91 | 1019.0 |
| 20260831001031 | 65 | 177 | 0.0 | 0.0 | 0.05 | 0.37 | 0.37 | 91 | 1018.9 |
| 20260831000531 | 65 | 177 | 0.0 | 0.0 | 0.11 | 0.37 | 0.37 | 91 | 1018.9 |
| 20260831000030 | 65 | 177 | 0.0 | 0.0 | 0.20 | 0.37 | 0.37 | 91 | 1018.8 |
| 20260830235530 | 65 | 177 | 0.0 | 0.0 | 0.23 | 0.37 | 0.37 | 91 | 1018.5 |
| 20260830235029 | 65 | 177 | 0.0 | 0.0 | 0.23 | 0.37 | 0.37 | 91 | 1018.5 |
| 20260830234530 | 65 | 177 | 0.0 | 0.0 | 0.23 | 0.37 | 0.37 | 91 | 1018.8 |
| 20260830234029 | 65 | 177 | 0.0 | 0.0 | 0.23 | 0.37 | 0.37 | 90 | 1018.6 |
| 20260830233528 | 65 | 177 | 0.0 | 0.0 | 0.23 | 0.37 | 0.37 | 90 | 1018.4 |
| 20260830233037 | 65 | 177 | 0.0 | 0.0 | 0.23 | 0.37 | 0.37 | 90 | 1018.4 |
| 20260830232528 | 66 | 177 | 0.0 | 0.0 | 0.22 | 0.36 | 0.36 | 90 | 1018.2 |
| 20260830232027 | 66 | 177 | 0.0 | 2.0 | 0.22 | 0.35 | 0.35 | 90 | 1019.0 |
| 20260830231527 | 66 | 153 | 0.0 | 6.0 | 0.22 | 0.33 | 0.33 | 89 | 1019.4 |
| 20260830231025 | 66 | 184 | 1.0 | 6.0 | 0.24 | 0.31 | 0.31 | 89 | 1019.1 |
| 20260830230525 | 66 | 122 | 0.0 | 4.0 | 0.23 | 0.24 | 0.24 | 88 | 1018.8 |
| 20260830230026 | 66 | 355 | 0.0 | 4.0 | 0.16 | 0.16 | 0.16 | 88 | 1019.0 |